Terminal Aerodrome Forecast
Issued by NWS

Home | Current Version | Previous Version | Text Only | Print | Product List | Glossary On
Versions: 1 2 3 4 5 6 7 8 9 10 11 12 13 14 15
670
FTUS43 KTOP 302047 AAA
TAFMHK
TAF AMD
KMHK 302047Z 3021/3118 19010KT P6SM SCT050 SCT250
     FM302200 17009KT P6SM VCTS SCT040 BKN060CB
      TEMPO 3023/3101 -TSRA
     FM310100 18005KT P6SM SCT040 SCT250
     FM311000 19005KT 5SM BR SCT010 BKN020
     FM311400 20006KT P6SM VCTS BKN020CB=

USA.gov is the U.S. government's official web portal to all federal, state and local government web resources and services.